Regional Weather Roundup
Issued by NWS Upton, NY

Current Version | Previous Version | Graphics & Text | Print | Product List | Glossary Off
Versions: 1 2 3 4 5 6 7 8 9 10 11 12 13 14 15 16 17 18 19 20 21 22 23 24 25 26 27

000
ASUS41 KOKX 040808
RWROKX

REGIONAL WEATHER ROUNDUP
NATIONAL WEATHER SERVICE NEW YORK NY
300 AM EST SUN DEC 04 2016

NOTE: "FAIR" INDICATES FEW OR NO CLOUDS BELOW 12,000 FEET WITH NO
SIGNIFICANT WEATHER AND/OR OBSTRUCTIONS TO VISIBILITY.

NYZ071-072-176-178-NJZ106-104-040900-
NEW YORK CITY METRO AREA

CITY           SKY/WX    TMP DP  RH WIND       PRES   REMARKS
Central Park   CLOUDY    41  24  51 MISG      30.22R
Wall St Helipt CLOUDY    43  26  51 W6        30.21R
Bronx Bot Gard NOT AVBL
LaGuardia APRT CLOUDY    43  27  53 NW13      30.19S
Kennedy INTL   MOCLDY    43  24  47 NW14      30.20S
Breezy Point     N/A     41 N/A N/A NW12G20     N/A
Newark/Liberty CLOUDY    42  24  49 NW14G20   30.21R
Teterboro      CLOUDY    41  24  51 NW12      30.19S
$$

NYZ177-179-078>081-040900-
LONG ISLAND NEW YORK

CITY           SKY/WX    TMP DP  RH WIND       PRES   REMARKS
Jones Beach      N/A     41 N/A N/A NW10        N/A
Matinecock PT    N/A     41 N/A N/A N8          N/A
Farmingdale    MOCLDY    40  28  62 N7        30.19S
MacArthur/ISP  PTCLDY    35  28  75 N3        30.18R
Shirley        MOCLDY    37  25  61 NW7       30.19R WCI  32
Westhampton    CLEAR     35  22  58 NW9       30.18S WCI  28
Southampton    NOT AVBL
Bridgehampton  NOT AVBL
East Hampton     N/A     36  21  54 NW7       30.16S WCI  30
Montauk          N/A     39  22  50 NW13      30.17R WCI  31
$$

NYZ052-065-067-040900-
HUDSON VALLEY

CITY           SKY/WX    TMP DP  RH WIND       PRES   REMARKS
White Plains   MOCLDY    37  26  64 N6        30.17S WCI  32
Newburgh       MOCLDY    37  25  60 NW12      30.19R WCI  30
Montgomery     MOCLDY    38  23  55 NW6       30.18R WCI  33
Poughkeepsie   CLOUDY    35  25  66 CALM      30.19R
Albany         MOCLDY    34  18  52 NW10      30.20R WCI  26
$$

NJZ001-105-106-008-010-013-015-019>022-104-040900-
NEW JERSEY

CITY           SKY/WX    TMP DP  RH WIND       PRES   REMARKS
Newark/Liberty CLOUDY    42  24  49 NW14G20   30.21R
Teterboro      CLOUDY    41  24  51 NW12      30.19S
Caldwell       CLOUDY    41  24  51 NW7       30.21R
Somerville     CLOUDY    42  24  49 NW12G18   30.20S
Linden         CLOUDY    41  24  51 N9G16     30.21S
Sussex         CLOUDY    39  23  52 VRB6      30.20R WCI  35
Andover          N/A     38  24  57 N6        30.20S WCI  33
Trenton        CLOUDY    42  24  49 N12       30.21S
Millville      CLOUDY    45  29  53 NW7       30.23R
Atlantic City  CLOUDY    44  27  51 NW8       30.21R
Wrightstown    NOT AVBL
Toms River     CLOUDY    41  27  57 NW6       30.21S
Belmar         CLOUDY    40  26  57 NW9       30.21R WCI  34
$$

PAZ047>061-062-071-040900-
EASTERN PENNSYLVANIA

CITY           SKY/WX    TMP DP  RH WIND       PRES   REMARKS
Philadelphia   MOCLDY    44  24  45 N10       30.23R
Allentown      CLOUDY    41  26  55 N6        30.22S
Scranton       CLOUDY    37  26  64 N7        30.20R WCI  32
$$

CTZ002-004>006-009-010-012-RIZ004-006-007-MAZ004-011-015-040900-
SOUTHERN NEW ENGLAND
 IN CT

CITY           SKY/WX    TMP DP  RH WIND       PRES   REMARKS
Bradley INTL   MOCLDY    31  20  63 NW8       30.17R WCI  23
Hartford       CLOUDY    36  20  52 VRB7      30.18R WCI  30
Danbury        CLOUDY    35  23  61 NW5       30.18S WCI  31
Wtrbury/Oxford CLEAR     34  18  51 NW12G17   30.16R WCI  25
Bridgeport     PTCLDY    38  22  52 NW7       30.18S WCI  33
Meriden        CLOUDY    37  19  48 NW5       30.18R WCI  33
New Haven      CLEAR     35  20  54 N5        30.18R WCI  31
Chester          N/A     34  19  55 NW3       30.15S
Groton         CLEAR     37  21  52 NW9       30.16R WCI  30
Wilimantic     CLOUDY    36  21  54 W5        30.16R WCI  32

 IN RI

CITY           SKY/WX    TMP DP  RH WIND       PRES   REMARKS
Providence     MOCLDY    33  22  63 W7        30.14R WCI  27
Block Island   PTCLDY    37  21  52 NW10G18   30.15R WCI  30
Westerly       CLEAR     35  18  49 CALM      30.16R
 IN MA

CITY           SKY/WX    TMP DP  RH WIND       PRES   REMARKS
Boston         PTCLDY    34  21  59 W12       30.12R WCI  25
Worcester      CLEAR     28  18  66 NW10      30.10R WCI  19
Westfield      MOCLDY    26  23  88 CALM      30.16R
Provincetown   CLOUDY    38  26  62 NW20G29   30.08R WCI  28
Nantucket      CLOUDY    38  25  59 NW18      30.07S WCI  28
$$

ANZ330-335-338-340-345-350-353-355-040900-
COASTAL MARINE OBSERVATIONS


STATION/POSITION TIME  SKY/WX   TEMP    WIND        PRES    VSBY  WAVE
                                AIR SEA DIR/SP/G                  HT/PER
                 (UTC)          (F)     (DEG/KT/KT) (MB)    (MI)  (FT/S)
NY HARB ENTRANCE 0650            44 53  310/ 21/ 25 1021.7          3/ 4
20 S FIRE ISLAND 0650            45 53  310/ 19/ 23 1021.0          3/ 5
GREAT SOUTH BAY  0730            39 44                N/A
23 SSW MONTAUK P 0750            41 55  320/ 19/ 23 1021.1          4/ 4
15 E BARNEGAT LI 0730               54                N/A           4/ 5
HUDSON CANYON    0650            47 59              1020.6          7/ 7
KINGS POINT      0742            42 48              1022.2
EXECUTION ROCKS  0745            42     360/  8/ 12   N/A
CENTRAL LI SOUND 0730            40 51  330/ 17/ 23   N/A           2/ 4
EASTERN LI SOUND NOT AVBL
ROBBINS REEF     0742            42     310/ 15/ 20 1022.9
$$


>>>>>>>>>>>>>>>>>>>>>>>>>>>> KEY <<<<<<<<<<<<<<<<<<<<<<<<<<<
>                                                          <
>     SKY/WX - Sky Condition/Present Weather               <
>     TMP    - Temperature in Fahrenheit                   <
>     DP     - Dew Point in Fahrenheit                     <
>     RH     - Relative Humidity in Percent                <
>     WIND   - Direction (from) and Speed in MPH           <
>     PRES   - Mean Sea Level Pressure (inches of Hg)      <
>     WCI    - Wind Chill Index                            <
>     VSB    - VISIBILITY IN MILES                         <
>     HX     - HEAT INDEX                                  <
>     TC     - TEMPERATURE IN CELSIUS                      <
>     VRB    - VARIABLE WIND DIRECTION                     <
>                                                          <
>>>>>>>>>>>>>>>>>>>>>>>>>>>> KEY <<<<<<<<<<<<<<<<<<<<<<<<<<<




USA.gov is the U.S. government's official web portal to all federal, state and local government web resources and services.